owner,sensor,date,latitude,longitude,relative_humidity,qcFlag 
DISL,ioos:station:DISL:CATA:1,2011-06-01T00:00:00Z,30.3085,-88.1395,78.14,1111122 
DISL,ioos:station:DISL:CATA:1,2011-06-01T00:30:00Z,30.3085,-88.1395,77.07,1111122 
DISL,ioos:station:DISL:CATA:1,2011-06-01T01:00:00Z,30.3085,-88.1395,79.06,1111122 
DISL,ioos:station:DISL:CATA:1,2011-06-01T01:30:00Z,30.3085,-88.1395,75.94,1111122 
DISL,ioos:station:DISL:CATA:1,2011-06-01T02:00:00Z,30.3085,-88.1395,76.66,1111122 
DISL,ioos:station:DISL:CATA:1,2011-06-01T02:30:00Z,30.3085,-88.1395,75.94,1111122 
DISL,ioos:station:DISL:CATA:1,2011-06-01T03:00:00Z,30.3085,-88.1395,74.74,1111122 
DISL,ioos:station:DISL:CATA:1,2011-06-01T03:30:00Z,30.3085,-88.1395,75.05,1111122 
DISL,ioos:station:DISL:CATA:1,2011-06-01T04:00:00Z,30.3085,-88.1395,75.57,1111122 
DISL,ioos:station:DISL:CATA:1,2011-06-01T04:30:00Z,30.3085,-88.1395,73.0,1111122 
DISL,ioos:station:DISL:CATA:1,2011-06-01T05:00:00Z,30.3085,-88.1395,76.08,1111122 
DISL,ioos:station:DISL:CATA:1,2011-06-01T05:30:00Z,30.3085,-88.1395,75.94,1111122 
DISL,ioos:station:DISL:CATA:1,2011-06-01T06:00:00Z,30.3085,-88.1395,79.13,1111122 
DISL,ioos:station:DISL:CATA:1,2011-06-01T06:30:00Z,30.3085,-88.1395,76.94,1111122 
DISL,ioos:station:DISL:CATA:1,2011-06-01T07:00:00Z,30.3085,-88.1395,79.2,1111122 
DISL,ioos:station:DISL:CATA:1,2011-06-01T07:30:00Z,30.3085,-88.1395,78.27,1111122 
DISL,ioos:station:DISL:CATA:1,2011-06-01T08:00:00Z,30.3085,-88.1395,79.75,1111122 
DISL,ioos:station:DISL:CATA:1,2011-06-01T08:30:00Z,30.3085,-88.1395,81.1,1111122 
DISL,ioos:station:DISL:CATA:1,2011-06-01T09:00:00Z,30.3085,-88.1395,81.5,1111122 
DISL,ioos:station:DISL:CATA:1,2011-06-01T09:30:00Z,30.3085,-88.1395,80.8,1111122 
DISL,ioos:station:DISL:CATA:1,2011-06-01T10:00:00Z,30.3085,-88.1395,76.39,1111122 
DISL,ioos:station:DISL:CATA:1,2011-06-01T10:30:00Z,30.3085,-88.1395,80.4,1111122 
DISL,ioos:station:DISL:CATA:1,2011-06-01T11:00:00Z,30.3085,-88.1395,75.44,1111122 
DISL,ioos:station:DISL:CATA:1,2011-06-01T11:30:00Z,30.3085,-88.1395,80.1,1111122 
DISL,ioos:station:DISL:CATA:1,2011-06-01T12:00:00Z,30.3085,-88.1395,76.79,1111122 
DISL,ioos:station:DISL:CATA:1,2011-06-01T12:30:00Z,30.3085,-88.1395,76.6,1111122 
DISL,ioos:station:DISL:CATA:1,2011-06-01T13:00:00Z,30.3085,-88.1395,75.05,1111122 
DISL,ioos:station:DISL:CATA:1,2011-06-01T13:30:00Z,30.3085,-88.1395,67.03,1111122 
DISL,ioos:station:DISL:CATA:1,2011-06-01T14:00:00Z,30.3085,-88.1395,73.6,1111122 
DISL,ioos:station:DISL:CATA:1,2011-06-01T14:30:00Z,30.3085,-88.1395,69.93,1111122 
DISL,ioos:station:DISL:CATA:1,2011-06-01T15:00:00Z,30.3085,-88.1395,68.55,1111122 
DISL,ioos:station:DISL:CATA:1,2011-06-01T15:30:00Z,30.3085,-88.1395,66.26,1111122 
DISL,ioos:station:DISL:CATA:1,2011-06-01T16:00:00Z,30.3085,-88.1395,64.85,1111122 
DISL,ioos:station:DISL:CATA:1,2011-06-01T16:30:00Z,30.3085,-88.1395,63.02,1111122 
DISL,ioos:station:DISL:CATA:1,2011-06-01T17:00:00Z,30.3085,-88.1395,63.46,1111122 
DISL,ioos:station:DISL:CATA:1,2011-06-01T17:30:00Z,30.3085,-88.1395,63.9,1111122 
DISL,ioos:station:DISL:CATA:1,2011-06-01T18:00:00Z,30.3085,-88.1395,39.42,1111122 
DISL,ioos:station:DISL:CATA:1,2011-06-01T18:30:00Z,30.3085,-88.1395,44.55,1111122 
DISL,ioos:station:DISL:CATA:1,2011-06-01T19:00:00Z,30.3085,-88.1395,44.59,1111122 
DISL,ioos:station:DISL:CATA:1,2011-06-01T19:30:00Z,30.3085,-88.1395,40.34,1111122 
DISL,ioos:station:DISL:CATA:1,2011-06-01T20:00:00Z,30.3085,-88.1395,49.11,1111122 
DISL,ioos:station:DISL:CATA:1,2011-06-01T20:30:00Z,30.3085,-88.1395,47.02,1111122 
DISL,ioos:station:DISL:CATA:1,2011-06-01T21:00:00Z,30.3085,-88.1395,45.89,1111122 
DISL,ioos:station:DISL:CATA:1,2011-06-01T21:30:00Z,30.3085,-88.1395,39.69,1111122 
DISL,ioos:station:DISL:CATA:1,2011-06-01T22:00:00Z,30.3085,-88.1395,42.29,1111122 
DISL,ioos:station:DISL:CATA:1,2011-06-01T22:30:00Z,30.3085,-88.1395,34.49,1111122 
DISL,ioos:station:DISL:CATA:1,2011-06-01T23:00:00Z,30.3085,-88.1395,37.81,1111122 
DISL,ioos:station:DISL:CATA:1,2011-06-01T23:30:00Z,30.3085,-88.1395,35.34,1111122 
DISL,ioos:station:DISL:CATA:1,2011-06-02T00:00:00Z,30.3085,-88.1395,38.6,1111122 
DISL,ioos:station:DISL:CATA:1,2011-06-02T00:30:00Z,30.3085,-88.1395,39.32,1111122 
DISL,ioos:station:DISL:CATA:1,2011-06-02T01:00:00Z,30.3085,-88.1395,43.53,1111122 
DISL,ioos:station:DISL:CATA:1,2011-06-02T01:30:00Z,30.3085,-88.1395,47.82,1111122 
DISL,ioos:station:DISL:CATA:1,2011-06-02T02:00:00Z,30.3085,-88.1395,49.78,1111122 
DISL,ioos:station:DISL:CATA:1,2011-06-02T02:30:00Z,30.3085,-88.1395,51.87,1111122 
DISL,ioos:station:DISL:CATA:1,2011-06-02T03:00:00Z,30.3085,-88.1395,52.01,1111122 
DISL,ioos:station:DISL:CATA:1,2011-06-02T03:30:00Z,30.3085,-88.1395,56.33,1111122 
DISL,ioos:station:DISL:CATA:1,2011-06-02T04:00:00Z,30.3085,-88.1395,58.98,1111122 
DISL,ioos:station:DISL:CATA:1,2011-06-02T04:30:00Z,30.3085,-88.1395,59.25,1111122 
DISL,ioos:station:DISL:CATA:1,2011-06-02T05:00:00Z,30.3085,-88.1395,61.0,1111122 
DISL,ioos:station:DISL:CATA:1,2011-06-02T05:30:00Z,30.3085,-88.1395,63.19,1111122 
DISL,ioos:station:DISL:CATA:1,2011-06-02T06:00:00Z,30.3085,-88.1395,61.34,1111122 
DISL,ioos:station:DISL:CATA:1,2011-06-02T06:30:00Z,30.3085,-88.1395,60.32,1111122 
DISL,ioos:station:DISL:CATA:1,2011-06-02T07:00:00Z,30.3085,-88.1395,61.86,1111122 
DISL,ioos:station:DISL:CATA:1,2011-06-02T07:30:00Z,30.3085,-88.1395,71.25,1111122 
DISL,ioos:station:DISL:CATA:1,2011-06-02T08:00:00Z,30.3085,-88.1395,71.66,1111122 
DISL,ioos:station:DISL:CATA:1,2011-06-02T08:30:00Z,30.3085,-88.1395,66.04,1111122 
DISL,ioos:station:DISL:CATA:1,2011-06-02T09:00:00Z,30.3085,-88.1395,75.53,1111122 
DISL,ioos:station:DISL:CATA:1,2011-06-02T09:30:00Z,30.3085,-88.1395,84.8,1111122 
DISL,ioos:station:DISL:CATA:1,2011-06-02T10:00:00Z,30.3085,-88.1395,87.0,1111122 
DISL,ioos:station:DISL:CATA:1,2011-06-02T10:30:00Z,30.3085,-88.1395,85.6,1111122 
DISL,ioos:station:DISL:CATA:1,2011-06-02T11:00:00Z,30.3085,-88.1395,85.1,1111122 
DISL,ioos:station:DISL:CATA:1,2011-06-02T11:30:00Z,30.3085,-88.1395,83.3,1111122 
DISL,ioos:station:DISL:CATA:1,2011-06-02T12:00:00Z,30.3085,-88.1395,82.1,1111122 
DISL,ioos:station:DISL:CATA:1,2011-06-02T12:30:00Z,30.3085,-88.1395,81.2,1111122 
DISL,ioos:station:DISL:CATA:1,2011-06-02T13:00:00Z,30.3085,-88.1395,81.1,1111122 
DISL,ioos:station:DISL:CATA:1,2011-06-02T13:30:00Z,30.3085,-88.1395,81.0,1111122 
DISL,ioos:station:DISL:CATA:1,2011-06-02T14:00:00Z,30.3085,-88.1395,76.66,1111122 
DISL,ioos:station:DISL:CATA:1,2011-06-02T14:30:00Z,30.3085,-88.1395,74.16,1111122 
DISL,ioos:station:DISL:CATA:1,2011-06-02T15:00:00Z,30.3085,-88.1395,69.11,1111122 
DISL,ioos:station:DISL:CATA:1,2011-06-02T15:30:00Z,30.3085,-88.1395,67.66,1111122 
DISL,ioos:station:DISL:CATA:1,2011-06-02T16:00:00Z,30.3085,-88.1395,66.53,1111122 
DISL,ioos:station:DISL:CATA:1,2011-06-02T16:30:00Z,30.3085,-88.1395,67.66,1111122 
DISL,ioos:station:DISL:CATA:1,2011-06-02T17:00:00Z,30.3085,-88.1395,67.39,1111122 
DISL,ioos:station:DISL:CATA:1,2011-06-02T17:30:00Z,30.3085,-88.1395,68.82,1111122 
DISL,ioos:station:DISL:CATA:1,2011-06-02T18:00:00Z,30.3085,-88.1395,71.67,1111122 
DISL,ioos:station:DISL:CATA:1,2011-06-02T18:30:00Z,30.3085,-88.1395,71.6,1111122 
DISL,ioos:station:DISL:CATA:1,2011-06-02T19:00:00Z,30.3085,-88.1395,70.09,1111122 
DISL,ioos:station:DISL:CATA:1,2011-06-02T19:30:00Z,30.3085,-88.1395,69.34,1111122 
DISL,ioos:station:DISL:CATA:1,2011-06-02T20:00:00Z,30.3085,-88.1395,68.24,1111122 
DISL,ioos:station:DISL:CATA:1,2011-06-02T20:30:00Z,30.3085,-88.1395,64.58,1111122 
DISL,ioos:station:DISL:CATA:1,2011-06-02T21:00:00Z,30.3085,-88.1395,71.6,1111122 
DISL,ioos:station:DISL:CATA:1,2011-06-02T21:30:00Z,30.3085,-88.1395,66.19,1111122 
DISL,ioos:station:DISL:CATA:1,2011-06-02T22:00:00Z,30.3085,-88.1395,66.19,1111122 
DISL,ioos:station:DISL:CATA:1,2011-06-02T22:30:00Z,30.3085,-88.1395,69.1,1111122 
DISL,ioos:station:DISL:CATA:1,2011-06-02T23:00:00Z,30.3085,-88.1395,69.49,1111122 
DISL,ioos:station:DISL:CATA:1,2011-06-02T23:30:00Z,30.3085,-88.1395,73.23,1111122 
DISL,ioos:station:DISL:CATA:1,2011-06-03T00:00:00Z,30.3085,-88.1395,71.97,1111122 
DISL,ioos:station:DISL:CATA:1,2011-06-03T00:30:00Z,30.3085,-88.1395,75.19,1111122 
DISL,ioos:station:DISL:CATA:1,2011-06-03T01:00:00Z,30.3085,-88.1395,76.22,1111122 
DISL,ioos:station:DISL:CATA:1,2011-06-03T01:30:00Z,30.3085,-88.1395,76.66,1111122 
DISL,ioos:station:DISL:CATA:1,2011-06-03T02:00:00Z,30.3085,-88.1395,76.11,1111122 
DISL,ioos:station:DISL:CATA:1,2011-06-03T02:30:00Z,30.3085,-88.1395,76.39,1111122 
DISL,ioos:station:DISL:CATA:1,2011-06-03T03:00:00Z,30.3085,-88.1395,76.49,1111122 
DISL,ioos:station:DISL:CATA:1,2011-06-03T03:30:00Z,30.3085,-88.1395,76.01,1111122 
DISL,ioos:station:DISL:CATA:1,2011-06-03T04:00:00Z,30.3085,-88.1395,77.18,1111122 
DISL,ioos:station:DISL:CATA:1,2011-06-03T04:30:00Z,30.3085,-88.1395,75.94,1111122 
DISL,ioos:station:DISL:CATA:1,2011-06-03T05:00:00Z,30.3085,-88.1395,76.9,1111122 
DISL,ioos:station:DISL:CATA:1,2011-06-03T05:30:00Z,30.3085,-88.1395,76.76,1111122 
DISL,ioos:station:DISL:CATA:1,2011-06-03T06:00:00Z,30.3085,-88.1395,75.09,1111122 
DISL,ioos:station:DISL:CATA:1,2011-06-03T06:30:00Z,30.3085,-88.1395,76.18,1111122 
DISL,ioos:station:DISL:CATA:1,2011-06-03T07:00:00Z,30.3085,-88.1395,75.91,1111122 
DISL,ioos:station:DISL:CATA:1,2011-06-03T07:30:00Z,30.3085,-88.1395,75.33,1111122 
DISL,ioos:station:DISL:CATA:1,2011-06-03T08:00:00Z,30.3085,-88.1395,75.09,1111122 
DISL,ioos:station:DISL:CATA:1,2011-06-03T08:30:00Z,30.3085,-88.1395,75.4,1111122 
DISL,ioos:station:DISL:CATA:1,2011-06-03T09:00:00Z,30.3085,-88.1395,75.16,1111122 
DISL,ioos:station:DISL:CATA:1,2011-06-03T09:30:00Z,30.3085,-88.1395,73.73,1111122 
DISL,ioos:station:DISL:CATA:1,2011-06-03T10:00:00Z,30.3085,-88.1395,83.1,1111122 
DISL,ioos:station:DISL:CATA:1,2011-06-03T10:30:00Z,30.3085,-88.1395,87.1,1111122 
DISL,ioos:station:DISL:CATA:1,2011-06-03T11:00:00Z,30.3085,-88.1395,88.4,1111122 
DISL,ioos:station:DISL:CATA:1,2011-06-03T11:30:00Z,30.3085,-88.1395,88.8,1111122 
DISL,ioos:station:DISL:CATA:1,2011-06-03T12:00:00Z,30.3085,-88.1395,85.9,1111122 
DISL,ioos:station:DISL:CATA:1,2011-06-03T12:30:00Z,30.3085,-88.1395,78.87,1111122 
DISL,ioos:station:DISL:CATA:1,2011-06-03T13:00:00Z,30.3085,-88.1395,68.68,1111122 
DISL,ioos:station:DISL:CATA:1,2011-06-03T13:30:00Z,30.3085,-88.1395,69.11,1111122 
DISL,ioos:station:DISL:CATA:1,2011-06-03T14:00:00Z,30.3085,-88.1395,69.24,1111122 
DISL,ioos:station:DISL:CATA:1,2011-06-03T14:30:00Z,30.3085,-88.1395,69.72,1111122 
DISL,ioos:station:DISL:CATA:1,2011-06-03T15:00:00Z,30.3085,-88.1395,69.76,1111122 
DISL,ioos:station:DISL:CATA:1,2011-06-03T15:30:00Z,30.3085,-88.1395,66.51,1111122 
DISL,ioos:station:DISL:CATA:1,2011-06-03T16:00:00Z,30.3085,-88.1395,66.4,1111122 
DISL,ioos:station:DISL:CATA:1,2011-06-03T16:30:00Z,30.3085,-88.1395,64.45,1111122 
DISL,ioos:station:DISL:CATA:1,2011-06-03T17:00:00Z,30.3085,-88.1395,64.42,1111122 
DISL,ioos:station:DISL:CATA:1,2011-06-03T17:30:00Z,30.3085,-88.1395,67.81,1111122 
DISL,ioos:station:DISL:CATA:1,2011-06-03T18:00:00Z,30.3085,-88.1395,67.98,1111122 
DISL,ioos:station:DISL:CATA:1,2011-06-03T18:30:00Z,30.3085,-88.1395,56.03,1111122 
DISL,ioos:station:DISL:CATA:1,2011-06-03T19:00:00Z,30.3085,-88.1395,53.53,1111122 
DISL,ioos:station:DISL:CATA:1,2011-06-03T19:30:00Z,30.3085,-88.1395,60.05,1111122 
DISL,ioos:station:DISL:CATA:1,2011-06-03T20:00:00Z,30.3085,-88.1395,56.53,1111122 
DISL,ioos:station:DISL:CATA:1,2011-06-03T20:30:00Z,30.3085,-88.1395,57.69,1111122 
DISL,ioos:station:DISL:CATA:1,2011-06-03T21:00:00Z,30.3085,-88.1395,59.58,1111122 
DISL,ioos:station:DISL:CATA:1,2011-06-03T21:30:00Z,30.3085,-88.1395,59.1,1111122 
DISL,ioos:station:DISL:CATA:1,2011-06-03T22:00:00Z,30.3085,-88.1395,62.52,1111122 
DISL,ioos:station:DISL:CATA:1,2011-06-03T22:30:00Z,30.3085,-88.1395,64.2,1111122 
DISL,ioos:station:DISL:CATA:1,2011-06-03T23:00:00Z,30.3085,-88.1395,65.68,1111122 
DISL,ioos:station:DISL:CATA:1,2011-06-03T23:30:00Z,30.3085,-88.1395,68.15,1111122 
DISL,ioos:station:DISL:CATA:1,2011-06-04T00:00:00Z,30.3085,-88.1395,66.06,1111122 
DISL,ioos:station:DISL:CATA:1,2011-06-04T00:30:00Z,30.3085,-88.1395,68.44,1111122 
DISL,ioos:station:DISL:CATA:1,2011-06-04T01:00:00Z,30.3085,-88.1395,64.19,1111122 
DISL,ioos:station:DISL:CATA:1,2011-06-04T01:30:00Z,30.3085,-88.1395,68.23,1111122 
DISL,ioos:station:DISL:CATA:1,2011-06-04T02:00:00Z,30.3085,-88.1395,72.0,1111122 
DISL,ioos:station:DISL:CATA:1,2011-06-04T02:30:00Z,30.3085,-88.1395,68.95,1111122 
DISL,ioos:station:DISL:CATA:1,2011-06-04T03:00:00Z,30.3085,-88.1395,70.05,1111122 
DISL,ioos:station:DISL:CATA:1,2011-06-04T03:30:00Z,30.3085,-88.1395,70.19,1111122 
DISL,ioos:station:DISL:CATA:1,2011-06-04T04:00:00Z,30.3085,-88.1395,74.19,1111122 
DISL,ioos:station:DISL:CATA:1,2011-06-04T04:30:00Z,30.3085,-88.1395,71.35,1111122 
DISL,ioos:station:DISL:CATA:1,2011-06-04T05:00:00Z,30.3085,-88.1395,69.53,1111122 
DISL,ioos:station:DISL:CATA:1,2011-06-04T05:30:00Z,30.3085,-88.1395,74.88,1111122 
DISL,ioos:station:DISL:CATA:1,2011-06-04T06:00:00Z,30.3085,-88.1395,75.98,1111122 
DISL,ioos:station:DISL:CATA:1,2011-06-04T06:30:00Z,30.3085,-88.1395,78.51,1111122 
DISL,ioos:station:DISL:CATA:1,2011-06-04T07:00:00Z,30.3085,-88.1395,76.53,1111122 
DISL,ioos:station:DISL:CATA:1,2011-06-04T07:30:00Z,30.3085,-88.1395,77.42,1111122 
DISL,ioos:station:DISL:CATA:1,2011-06-04T08:00:00Z,30.3085,-88.1395,76.32,1111122 
DISL,ioos:station:DISL:CATA:1,2011-06-04T08:30:00Z,30.3085,-88.1395,78.75,1111122 
DISL,ioos:station:DISL:CATA:1,2011-06-04T09:00:00Z,30.3085,-88.1395,81.5,1111122 
DISL,ioos:station:DISL:CATA:1,2011-06-04T09:30:00Z,30.3085,-88.1395,80.5,1111122 
DISL,ioos:station:DISL:CATA:1,2011-06-04T10:00:00Z,30.3085,-88.1395,77.96,1111122 
DISL,ioos:station:DISL:CATA:1,2011-06-04T10:30:00Z,30.3085,-88.1395,79.27,1111122 
DISL,ioos:station:DISL:CATA:1,2011-06-04T11:00:00Z,30.3085,-88.1395,77.42,1111122 
DISL,ioos:station:DISL:CATA:1,2011-06-04T11:30:00Z,30.3085,-88.1395,75.85,1111122 
DISL,ioos:station:DISL:CATA:1,2011-06-04T12:00:00Z,30.3085,-88.1395,76.08,1111122 
DISL,ioos:station:DISL:CATA:1,2011-06-04T12:30:00Z,30.3085,-88.1395,72.52,1111122 
DISL,ioos:station:DISL:CATA:1,2011-06-04T13:00:00Z,30.3085,-88.1395,72.52,1111122 
DISL,ioos:station:DISL:CATA:1,2011-06-04T13:30:00Z,30.3085,-88.1395,71.11,1111122 
DISL,ioos:station:DISL:CATA:1,2011-06-04T14:00:00Z,30.3085,-88.1395,64.84,1111122 
DISL,ioos:station:DISL:CATA:1,2011-06-04T14:30:00Z,30.3085,-88.1395,60.37,1111122 
DISL,ioos:station:DISL:CATA:1,2011-06-04T15:00:00Z,30.3085,-88.1395,62.01,1111122 
DISL,ioos:station:DISL:CATA:1,2011-06-04T15:30:00Z,30.3085,-88.1395,57.11,1111122 
DISL,ioos:station:DISL:CATA:1,2011-06-04T16:00:00Z,30.3085,-88.1395,63.6,1111122 
DISL,ioos:station:DISL:CATA:1,2011-06-04T16:30:00Z,30.3085,-88.1395,65.1,1111122 
DISL,ioos:station:DISL:CATA:1,2011-06-04T17:00:00Z,30.3085,-88.1395,66.4,1111122 
DISL,ioos:station:DISL:CATA:1,2011-06-04T17:30:00Z,30.3085,-88.1395,61.44,1111122 
DISL,ioos:station:DISL:CATA:1,2011-06-04T18:00:00Z,30.3085,-88.1395,64.52,1111122 
DISL,ioos:station:DISL:CATA:1,2011-06-04T18:30:00Z,30.3085,-88.1395,56.3,1111122 
DISL,ioos:station:DISL:CATA:1,2011-06-04T19:00:00Z,30.3085,-88.1395,57.98,1111122 
DISL,ioos:station:DISL:CATA:1,2011-06-04T19:30:00Z,30.3085,-88.1395,56.71,1111122 
DISL,ioos:station:DISL:CATA:1,2011-06-04T20:00:00Z,30.3085,-88.1395,58.22,1111122 
DISL,ioos:station:DISL:CATA:1,2011-06-04T20:30:00Z,30.3085,-88.1395,64.93,1111122 
DISL,ioos:station:DISL:CATA:1,2011-06-04T21:00:00Z,30.3085,-88.1395,69.49,1111122 
DISL,ioos:station:DISL:CATA:1,2011-06-04T21:30:00Z,30.3085,-88.1395,75.31,1111122 
DISL,ioos:station:DISL:CATA:1,2011-06-04T22:00:00Z,30.3085,-88.1395,58.53,1111122 
DISL,ioos:station:DISL:CATA:1,2011-06-04T22:30:00Z,30.3085,-88.1395,71.4,1111122 
DISL,ioos:station:DISL:CATA:1,2011-06-04T23:00:00Z,30.3085,-88.1395,37.4,1111122 
DISL,ioos:station:DISL:CATA:1,2011-06-04T23:30:00Z,30.3085,-88.1395,32.29,1111122 
DISL,ioos:station:DISL:CATA:1,2011-06-05T00:00:00Z,30.3085,-88.1395,74.86,1111122 
DISL,ioos:station:DISL:CATA:1,2011-06-05T00:30:00Z,30.3085,-88.1395,67.61,1111122 
DISL,ioos:station:DISL:CATA:1,2011-06-05T01:00:00Z,30.3085,-88.1395,54.5,1111122 
DISL,ioos:station:DISL:CATA:1,2011-06-05T01:30:00Z,30.3085,-88.1395,65.88,1111122 
DISL,ioos:station:DISL:CATA:1,2011-06-05T02:00:00Z,30.3085,-88.1395,42.51,1111122 
DISL,ioos:station:DISL:CATA:1,2011-06-05T02:30:00Z,30.3085,-88.1395,56.94,1111122 
DISL,ioos:station:DISL:CATA:1,2011-06-05T03:00:00Z,30.3085,-88.1395,57.42,1111122 
DISL,ioos:station:DISL:CATA:1,2011-06-05T03:30:00Z,30.3085,-88.1395,60.36,1111122 
DISL,ioos:station:DISL:CATA:1,2011-06-05T04:00:00Z,30.3085,-88.1395,64.89,1111122 
DISL,ioos:station:DISL:CATA:1,2011-06-05T04:30:00Z,30.3085,-88.1395,55.06,1111122 
DISL,ioos:station:DISL:CATA:1,2011-06-05T05:00:00Z,30.3085,-88.1395,60.37,1111122 
DISL,ioos:station:DISL:CATA:1,2011-06-05T05:30:00Z,30.3085,-88.1395,70.31,1111122 
DISL,ioos:station:DISL:CATA:1,2011-06-05T06:00:00Z,30.3085,-88.1395,77.47,1111122 
DISL,ioos:station:DISL:CATA:1,2011-06-05T06:30:00Z,30.3085,-88.1395,77.21,1111122 
DISL,ioos:station:DISL:CATA:1,2011-06-05T07:00:00Z,30.3085,-88.1395,77.07,1111122 
DISL,ioos:station:DISL:CATA:1,2011-06-05T07:30:00Z,30.3085,-88.1395,76.11,1111122 
DISL,ioos:station:DISL:CATA:1,2011-06-05T08:00:00Z,30.3085,-88.1395,82.0,1111122 
DISL,ioos:station:DISL:CATA:1,2011-06-05T08:30:00Z,30.3085,-88.1395,83.4,1111122 
DISL,ioos:station:DISL:CATA:1,2011-06-05T09:00:00Z,30.3085,-88.1395,85.0,1111122 
DISL,ioos:station:DISL:CATA:1,2011-06-05T09:30:00Z,30.3085,-88.1395,85.0,1111122 
DISL,ioos:station:DISL:CATA:1,2011-06-05T10:00:00Z,30.3085,-88.1395,86.1,1111122 
DISL,ioos:station:DISL:CATA:1,2011-06-05T10:30:00Z,30.3085,-88.1395,86.6,1111122 
DISL,ioos:station:DISL:CATA:1,2011-06-05T11:00:00Z,30.3085,-88.1395,85.1,1111122 
DISL,ioos:station:DISL:CATA:1,2011-06-05T11:30:00Z,30.3085,-88.1395,84.3,1111122 
DISL,ioos:station:DISL:CATA:1,2011-06-05T12:00:00Z,30.3085,-88.1395,86.8,1111122 
DISL,ioos:station:DISL:CATA:1,2011-06-05T12:30:00Z,30.3085,-88.1395,86.3,1111122 
DISL,ioos:station:DISL:CATA:1,2011-06-05T13:00:00Z,30.3085,-88.1395,85.6,1111122 
DISL,ioos:station:DISL:CATA:1,2011-06-05T13:30:00Z,30.3085,-88.1395,83.8,1111122 
DISL,ioos:station:DISL:CATA:1,2011-06-05T14:00:00Z,30.3085,-88.1395,75.38,1111122 
DISL,ioos:station:DISL:CATA:1,2011-06-05T14:30:00Z,30.3085,-88.1395,73.28,1111122 
DISL,ioos:station:DISL:CATA:1,2011-06-05T15:00:00Z,30.3085,-88.1395,77.18,1111122 
DISL,ioos:station:DISL:CATA:1,2011-06-05T15:30:00Z,30.3085,-88.1395,74.58,1111122 
DISL,ioos:station:DISL:CATA:1,2011-06-05T16:00:00Z,30.3085,-88.1395,72.94,1111122 
DISL,ioos:station:DISL:CATA:1,2011-06-05T16:30:00Z,30.3085,-88.1395,70.26,1111122 
DISL,ioos:station:DISL:CATA:1,2011-06-05T17:00:00Z,30.3085,-88.1395,70.98,1111122 
DISL,ioos:station:DISL:CATA:1,2011-06-05T17:30:00Z,30.3085,-88.1395,71.84,1111122 
DISL,ioos:station:DISL:CATA:1,2011-06-05T18:00:00Z,30.3085,-88.1395,71.12,1111122 
DISL,ioos:station:DISL:CATA:1,2011-06-05T18:30:00Z,30.3085,-88.1395,71.7,1111122 
DISL,ioos:station:DISL:CATA:1,2011-06-05T19:00:00Z,30.3085,-88.1395,69.96,1111122 
DISL,ioos:station:DISL:CATA:1,2011-06-05T19:30:00Z,30.3085,-88.1395,69.3,1111122 
DISL,ioos:station:DISL:CATA:1,2011-06-05T20:00:00Z,30.3085,-88.1395,73.21,1111122 
DISL,ioos:station:DISL:CATA:1,2011-06-05T20:30:00Z,30.3085,-88.1395,68.04,1111122 
DISL,ioos:station:DISL:CATA:1,2011-06-05T21:00:00Z,30.3085,-88.1395,67.52,1111122 
DISL,ioos:station:DISL:CATA:1,2011-06-05T21:30:00Z,30.3085,-88.1395,71.33,1111122 
DISL,ioos:station:DISL:CATA:1,2011-06-05T22:00:00Z,30.3085,-88.1395,61.08,1111122 
DISL,ioos:station:DISL:CATA:1,2011-06-05T22:30:00Z,30.3085,-88.1395,61.87,1111122 
DISL,ioos:station:DISL:CATA:1,2011-06-05T23:00:00Z,30.3085,-88.1395,60.74,1111122 
DISL,ioos:station:DISL:CATA:1,2011-06-05T23:30:00Z,30.3085,-88.1395,62.56,1111122 
DISL,ioos:station:DISL:CATA:1,2011-06-06T00:00:00Z,30.3085,-88.1395,67.05,1111122 
DISL,ioos:station:DISL:CATA:1,2011-06-06T00:30:00Z,30.3085,-88.1395,70.52,1111122 
DISL,ioos:station:DISL:CATA:1,2011-06-06T01:00:00Z,30.3085,-88.1395,75.01,1111122 
DISL,ioos:station:DISL:CATA:1,2011-06-06T01:30:00Z,30.3085,-88.1395,78.82,1111122 
DISL,ioos:station:DISL:CATA:1,2011-06-06T02:00:00Z,30.3085,-88.1395,79.37,1111122 
DISL,ioos:station:DISL:CATA:1,2011-06-06T02:30:00Z,30.3085,-88.1395,80.4,1111122 
DISL,ioos:station:DISL:CATA:1,2011-06-06T03:00:00Z,30.3085,-88.1395,74.64,1111122 
DISL,ioos:station:DISL:CATA:1,2011-06-06T03:30:00Z,30.3085,-88.1395,75.02,1111122 
DISL,ioos:station:DISL:CATA:1,2011-06-06T04:00:00Z,30.3085,-88.1395,76.66,1111122 
DISL,ioos:station:DISL:CATA:1,2011-06-06T04:30:00Z,30.3085,-88.1395,72.55,1111122 
DISL,ioos:station:DISL:CATA:1,2011-06-06T05:00:00Z,30.3085,-88.1395,74.57,1111122 
DISL,ioos:station:DISL:CATA:1,2011-06-06T05:30:00Z,30.3085,-88.1395,72.38,1111122 
DISL,ioos:station:DISL:CATA:1,2011-06-06T06:00:00Z,30.3085,-88.1395,73.89,1111122 
DISL,ioos:station:DISL:CATA:1,2011-06-06T06:30:00Z,30.3085,-88.1395,69.29,1111122 
DISL,ioos:station:DISL:CATA:1,2011-06-06T07:00:00Z,30.3085,-88.1395,75.7,1111122 
DISL,ioos:station:DISL:CATA:1,2011-06-06T07:30:00Z,30.3085,-88.1395,80.5,1111122 
DISL,ioos:station:DISL:CATA:1,2011-06-06T08:00:00Z,30.3085,-88.1395,82.1,1111122 
DISL,ioos:station:DISL:CATA:1,2011-06-06T08:30:00Z,30.3085,-88.1395,84.6,1111122 
DISL,ioos:station:DISL:CATA:1,2011-06-06T09:00:00Z,30.3085,-88.1395,85.8,1111122 
DISL,ioos:station:DISL:CATA:1,2011-06-06T09:30:00Z,30.3085,-88.1395,86.0,1111122 
DISL,ioos:station:DISL:CATA:1,2011-06-06T10:00:00Z,30.3085,-88.1395,89.1,1111122 
DISL,ioos:station:DISL:CATA:1,2011-06-06T10:30:00Z,30.3085,-88.1395,88.6,1111122 
DISL,ioos:station:DISL:CATA:1,2011-06-06T11:00:00Z,30.3085,-88.1395,90.2,1111122 
DISL,ioos:station:DISL:CATA:1,2011-06-06T11:30:00Z,30.3085,-88.1395,89.5,1111122 
DISL,ioos:station:DISL:CATA:1,2011-06-06T12:00:00Z,30.3085,-88.1395,88.9,1111122 
DISL,ioos:station:DISL:CATA:1,2011-06-06T12:30:00Z,30.3085,-88.1395,85.8,1111122 
DISL,ioos:station:DISL:CATA:1,2011-06-06T13:00:00Z,30.3085,-88.1395,81.1,1111122 
DISL,ioos:station:DISL:CATA:1,2011-06-06T13:30:00Z,30.3085,-88.1395,77.72,1111122 
DISL,ioos:station:DISL:CATA:1,2011-06-06T14:00:00Z,30.3085,-88.1395,76.79,1111122 
DISL,ioos:station:DISL:CATA:1,2011-06-06T14:30:00Z,30.3085,-88.1395,74.14,1111122 
DISL,ioos:station:DISL:CATA:1,2011-06-06T15:00:00Z,30.3085,-88.1395,73.14,1111122 
DISL,ioos:station:DISL:CATA:1,2011-06-06T15:30:00Z,30.3085,-88.1395,73.18,1111122 
DISL,ioos:station:DISL:CATA:1,2011-06-06T16:00:00Z,30.3085,-88.1395,71.39,1111122 
DISL,ioos:station:DISL:CATA:1,2011-06-06T16:30:00Z,30.3085,-88.1395,69.51,1111122 
DISL,ioos:station:DISL:CATA:1,2011-06-06T17:00:00Z,30.3085,-88.1395,68.96,1111122 
DISL,ioos:station:DISL:CATA:1,2011-06-06T17:30:00Z,30.3085,-88.1395,68.4,1111122 
DISL,ioos:station:DISL:CATA:1,2011-06-06T18:00:00Z,30.3085,-88.1395,67.1,1111122 
DISL,ioos:station:DISL:CATA:1,2011-06-06T18:30:00Z,30.3085,-88.1395,71.01,1111122 
DISL,ioos:station:DISL:CATA:1,2011-06-06T19:00:00Z,30.3085,-88.1395,68.37,1111122 
DISL,ioos:station:DISL:CATA:1,2011-06-06T19:30:00Z,30.3085,-88.1395,71.89,1111122 
DISL,ioos:station:DISL:CATA:1,2011-06-06T20:00:00Z,30.3085,-88.1395,69.76,1111122 
DISL,ioos:station:DISL:CATA:1,2011-06-06T20:30:00Z,30.3085,-88.1395,71.71,1111122 
DISL,ioos:station:DISL:CATA:1,2011-06-06T21:00:00Z,30.3085,-88.1395,71.54,1111122 
DISL,ioos:station:DISL:CATA:1,2011-06-06T21:30:00Z,30.3085,-88.1395,72.37,1111122 
DISL,ioos:station:DISL:CATA:1,2011-06-06T22:00:00Z,30.3085,-88.1395,67.76,1111122 
DISL,ioos:station:DISL:CATA:1,2011-06-06T22:30:00Z,30.3085,-88.1395,69.99,1111122 
DISL,ioos:station:DISL:CATA:1,2011-06-06T23:00:00Z,30.3085,-88.1395,71.39,1111122 
DISL,ioos:station:DISL:CATA:1,2011-06-06T23:30:00Z,30.3085,-88.1395,72.25,1111122 
DISL,ioos:station:DISL:CATA:1,2011-06-07T00:00:00Z,30.3085,-88.1395,70.82,1111122 